Regional Weather Roundup
Issued by NWS Mt. Holly, NJ

Home | Current Version | Previous Version | Text Only | Print | Product List | Glossary On
Versions: 1 2 3 4 5 6 7 8 9 10 11 12 13 14 15 16 17 18 19 20 21 22 23 24 25 26 27 28 29 30 31 32 33 34 35 36 37 38 39 40 41 42 43 44 45 46 47 48 49 50
000
ASUS41 KPHI 210812
RWRPHI

REGIONAL WEATHER ROUNDUP
NATIONAL WEATHER SERVICE MOUNT HOLLY NJ
400 AM EDT FRI JUL 21 2017

NOTE:  "FAIR" INDICATES FEW OR NO CLOUDS BELOW 12,000 FEET WITH NO
SIGNIFICANT WEATHER AND/OR OBSTRUCTIONS TO VISIBILITY.

 * = STATION DOES NOT REPORT PRECIPITATION (E.G. RAIN, SNOW, ETC.)
        OR FOG.

NJZ015>026-210900-
SOUTHERN NEW JERSEY

CITY           SKY/WX    TMP DP  RH WIND       PRES   REMARKS
POMONA         PTCLDY    81  76  84 W6        29.88F
MILLVILLE      PTCLDY    77  77 100 W3        29.88F
WRIGHTSTOWN    PTCLDY    72  69  91 CALM      29.86S
MOUNT HOLLY      N/A     73  71  93 CALM      29.88S
TRENTON        MOCLDY    72  71  97 N6        29.89R

$$
NJZ001>014-210900-
NORTHERN NEW JERSEY

CITY           SKY/WX    TMP DP  RH WIND       PRES   REMARKS
SUSSEX         MOCLDY    66  66 100 CALM      29.91S FOG
ANDOVER*         N/A     68  67  96 CALM      29.91S
MORRISTOWN     CLOUDY    68  68 100 CALM      29.89F
NEWARK         MOCLDY    76  69  79 W5        29.88S
TETERBORO      CLOUDY    76  68  76 NW5       29.86F
CALDWELL       CLEAR     72  69  90 CALM      29.89F
SOMERVILLE     MOCLDY    70  70 100 CALM      29.88S FOG
ALLAIRE*       PTCLDY    73  71  93 NW5       29.90R
TOMS RIVER*    PTCLDY    73  69  87 W3        29.89S FOG

$$
PAZ043-044-047-054-055-060>062-066>071-210900-
EASTERN PENNSYLVANIA

CITY           SKY/WX    TMP DP  RH WIND       PRES   REMARKS
PHILADELPHIA   MOCLDY    81  72  74 W5        29.89S
NORTH PHILA    PTCLDY    76  70  82 CALM      29.90S
BLUE BELL*     MOCLDY    70  70 100 CALM      29.91S
DOYLESTOWN     MOCLDY    72  69  90 NE5       29.90S
QUAKERTOWN*    MOCLDY    70  68  94 CALM      29.92S
PERKASIE*      FAIR      68  68 100 CALM      29.92S
POTTSTOWN      CLOUDY    71  69  93 CALM      29.92S
LANCASTER      PTCLDY    77  71  82 W6        29.91S
COATESVILLE    PTCLDY    75  70  83 NW7       29.93S
READING        MOCLDY    73  71  93 CALM      29.90S
ALLENTOWN      CLOUDY    71  68  90 NW3       29.91S
MOUNT POCONO   CLEAR     65  65 100 NW6       29.97S
HAZLETON         N/A     68  64  88 W3        30.00S
LEHIGHTON      FOG       68  68 100 CALM      29.93S VSB 1/2
WILKES BARRE   FOG       69  69 100 CALM      29.94S VSB 1/4

$$
DEZALL-MDZ008-012-015-019-020-210900-
DELAWARE AND EASTERN MARYLAND

CITY           SKY/WX    TMP DP  RH WIND       PRES   REMARKS
WILMINGTON     MOCLDY    80  77  90 W5        29.90R
DOVER          PTCLDY    79  79 100 SW7       29.87F
GEORGETOWN     PTCLDY    80  75  84 SW8       29.90F
EASTON         CLOUDY    81  75  84 W3        29.93F
PATUXENT       MOCLDY    79  75  87 SW10      29.90F
OCEAN CITY     CLOUDY    81  75  82 SW12      29.90F
WALLOPS ISLAND CLEAR     79  75  87 SW8       29.92F
CAMBRIDGE      CLEAR     77  75  94 CALM      29.90F

$$
PAZ001-021-NYZ056-072-MDZ011-DCZ001-210900-
OTHER NEARBY LOCATIONS

CITY           SKY/WX    TMP DP  RH WIND       PRES   REMARKS
HARRISBURG     MOCLDY    79  71  76 NW10      29.91S
STATE COLLEGE  CLOUDY    73  70  88 W5        29.98S
WILLIAMSPORT   CLOUDY    70  70 100 CALM      29.92F
BINGHAMTON     FOG       65  65 100 SW5       29.95S VSB 1/4
NEW YORK CITY  CLOUDY    77  67  71 W3        29.91S
BALTIMORE      MOCLDY    79  70  74 W6        29.90F
WASHINGTON DC  CLOUDY    86  69  56 NW6       29.91F HX  90

$$



USA.gov is the U.S. government's official web portal to all federal, state and local government web resources and services.